Weather History for Branson, MO

Change the Weather History Date:

Sunday, April 21, 2013

  Actual Average (KHRO) Record (KHRO)
Temperature  
Mean Temperature 56 °F 60 °F  
Max Temperature 66 °F 71 °F 93 °F (1963)
Min Temperature 46 °F 49 °F 31 °F (1956)
Degree Days  
Heating Degree Days 9 7  
Month to date heating degree days 192  
Since 1 July heating degree days 3872  
Cooling Degree Days 0 1  
Month to date cooling degree days 21  
Year to date cooling degree days 27  
Growing Degree Days 6 (Base 50)    
Moisture  
Dew Point 37 °F    
Average Humidity 55    
Maximum Humidity 81    
Minimum Humidity 28    
Precipitation  
Precipitation 0.00 in 0.16 in 3.29 in (1928)
Month to date precipitation 2.85  
Year to date precipitation 11.84  
Snow  
Snow 0.00 in 0.00 in - ()
Month to date snowfall 0.3  
Since 1 July snowfall 11.5  
Snow Depth -    
Sea Level Pressure  
Sea Level Pressure 30.24 in    
Wind  
Wind Speed 9 mph (SE)    
Max Wind Speed 15 mph    
Max Gust Speed 21 mph    
Visibility 10 miles    
Events      
T = Trace of Precipitation, MM = Missing Value Source: NWS Daily Summary

Daily Weather History Graph

Daily Weather History Graph

Search for Another Location

Airport:

Trip Planner

Search our weather history database for the weather conditions in past years. The results will help you decide how hot, cold, wet, or windy it might be!

Date:

Astronomy

Apr. 21, 2013 Rise Set
Actual Time 6:30 AM CDT 7:52 PM CDT
Civil Twilight 6:03 AM CDT 8:19 PM CDT
Nautical Twilight 5:31 AM CDT 8:51 PM CDT
Astronomical Twilight 4:57 AM CDT 9:25 PM CDT
Moon 3:44 PM CDT (4/21) 3:46 AM CDT (4/21)
Length of Visible Light 14h 15m
Length of Day
13h 21m
Waxing Gibbous, 80% of the Moon is Illuminated
Apr 21
Waxing Gibbous
Apr 25
Full
May 2
Last Quarter
May 9
New
May 17
First Quarter

Hourly Weather History & Observations

Time (CDT) Temp. Windchill Dew Point Humidity Pressure Visibility Wind Dir Wind Speed Gust Speed Precip Events Conditions
12:15 AM 53.6 °F - 37.4 °F 54% 30.22 in 10.0 mi ESE 6.9 mph - N/A   Clear
12:35 AM 53.6 °F - 37.4 °F 54% 30.22 in 10.0 mi SE 8.1 mph - N/A   Clear
12:55 AM 53.6 °F - 37.4 °F 54% 30.23 in 10.0 mi SE 8.1 mph - N/A   Clear
1:15 AM 53.6 °F - 37.4 °F 54% 30.23 in 10.0 mi ESE 8.1 mph - N/A   Clear
1:35 AM 51.8 °F - 37.4 °F 58% 30.23 in 10.0 mi ESE 10.4 mph - N/A   Clear
4:15 AM 48.2 °F - 39.2 °F 71% 30.24 in 10.0 mi ESE 6.9 mph - N/A   Clear
4:35 AM 48.2 °F - 39.2 °F 71% 30.25 in 10.0 mi ESE 4.6 mph - N/A   Clear
4:55 AM 48.2 °F - 39.2 °F 71% 30.26 in 10.0 mi ESE 6.9 mph - N/A   Clear
5:15 AM 48.2 °F - 39.2 °F 71% 30.26 in 10.0 mi ESE 6.9 mph - N/A   Clear
5:35 AM 46.4 °F 42.9 °F 39.2 °F 76% 30.27 in 10.0 mi ESE 6.9 mph - N/A   Clear
5:55 AM 46.4 °F 42.4 °F 41.0 °F 81% 30.27 in 10.0 mi ESE 8.1 mph - N/A   Clear
6:15 AM 46.4 °F 42.4 °F 41.0 °F 81% 30.28 in 10.0 mi ESE 8.1 mph - N/A   Partly Cloudy
6:35 AM 46.4 °F 42.4 °F 41.0 °F 81% 30.28 in 10.0 mi ESE 8.1 mph - N/A   Partly Cloudy
6:55 AM 46.4 °F 41.9 °F 41.0 °F 81% 30.30 in 10.0 mi ESE 9.2 mph - N/A   Mostly Cloudy
7:55 AM 48.2 °F - 41.0 °F 76% 30.31 in 10.0 mi ESE 11.5 mph - N/A   Overcast
8:55 AM 50.0 °F - 41.0 °F 71% 30.31 in 10.0 mi ESE 12.7 mph - N/A   Mostly Cloudy
9:55 AM 55.4 °F - 39.2 °F 54% 30.32 in 10.0 mi SSE 11.5 mph - N/A   Mostly Cloudy
10:48 AM 57.2 °F - 39.2 °F 51% 30.32 in 10.0 mi ESE 9.2 mph 16.1 mph N/A   Mostly Cloudy
11:47 AM 59.0 °F - 37.4 °F 45% 30.30 in 10.0 mi SSE 13.8 mph - N/A   Mostly Cloudy
12:45 PM 62.6 °F - 37.4 °F 39% 30.28 in 10.0 mi SSE 13.8 mph 18.4 mph N/A   Mostly Cloudy
1:50 PM 62.6 °F - 35.6 °F 37% 30.24 in 10.0 mi SE 10.4 mph 19.6 mph N/A   Mostly Cloudy
2:50 PM 66.2 °F - 33.8 °F 30% 30.21 in 10.0 mi South 13.8 mph 20.7 mph N/A   Mostly Cloudy
3:52 PM 66.2 °F - 32.0 °F 28% 30.19 in 10.0 mi SSE 15.0 mph 19.6 mph N/A   Mostly Cloudy
4:46 PM 64.4 °F - 32.0 °F 30% 30.18 in 10.0 mi SSE 13.8 mph 19.6 mph N/A   Mostly Cloudy
5:45 PM 64.4 °F - 35.6 °F 34% 30.17 in 10.0 mi ESE 11.5 mph - N/A   Mostly Cloudy
6:55 PM 62.6 °F - 35.6 °F 37% 30.17 in 10.0 mi ESE 10.4 mph - N/A   Scattered Clouds
7:55 PM 59.0 °F - 35.6 °F 42% 30.19 in 10.0 mi ESE 8.1 mph - N/A   Partly Cloudy
8:45 PM 57.2 °F - 37.4 °F 48% 30.20 in 10.0 mi ESE 6.9 mph - N/A   Partly Cloudy
9:15 PM 57.2 °F - 35.6 °F 44% 30.21 in 10.0 mi ESE 10.4 mph - N/A   Clear
9:35 PM 55.4 °F - 35.6 °F 47% 30.21 in 10.0 mi ESE 8.1 mph - N/A   Clear
9:55 PM 55.4 °F - 35.6 °F 47% 30.22 in 10.0 mi SE 9.2 mph - N/A   Clear
10:15 PM 55.4 °F - 35.6 °F 47% 30.23 in 10.0 mi SE 10.4 mph - N/A   Clear
10:55 PM 53.6 °F - 35.6 °F 51% 30.23 in 10.0 mi SE 8.1 mph - N/A   Clear
11:15 PM 53.6 °F - 35.6 °F 51% 30.23 in 10.0 mi SE 8.1 mph - N/A   Clear
11:35 PM 51.8 °F - 37.4 °F 58% 30.24 in 10.0 mi SE 8.1 mph - N/A   Clear
11:55 PM 51.8 °F - 35.6 °F 54% 30.24 in 10.0 mi SE 8.1 mph - N/A   Clear